Weather History for Wittering, United Kingdom

Change the Weather History Date:

Saturday, January 5, 2013

  Actual Average Record
Temperature  
Mean Temperature 48 °F -  
Max Temperature 52 °F 42 °F 55 °F (1999)
Min Temperature 44 °F 34 °F 30 °F (1997)
Degree Days  
Heating Degree Days 17    
Moisture  
Dew Point 45 °F    
Average Humidity 90    
Maximum Humidity 100    
Minimum Humidity 77    
Precipitation  
Precipitation 0.00 in - - ()
Sea Level Pressure  
Sea Level Pressure 30.50 in    
Wind  
Wind Speed 9 mph ()    
Max Wind Speed 20 mph    
Max Gust Speed -    
Visibility 6.3 miles    
Events      
Averages and records for this station are not official NWS values.
T = Trace of Precipitation, MM = Missing Value Source: Averaged Metar Reports

Daily Weather History Graph

Daily Weather History Graph

Search for Another Location

Airport:

Trip Planner

Search our weather history database for the weather conditions in past years. The results will help you decide how hot, cold, wet, or windy it might be!

Date:

Astronomy

Jan. 05, 2013 Rise Set
Actual Time 8:12 AM GMT 4:02 PM GMT
Civil Twilight 7:31 AM GMT 4:43 PM GMT
Nautical Twilight 6:47 AM GMT 5:27 PM GMT
Astronomical Twilight 6:05 AM GMT 6:09 PM GMT
Moon 12:30 AM GMT (1/5) 11:11 AM GMT (1/5)
Length of Visible Light 9h 12m
Length of Day
7h 50m
Waning Gibbous, 46% of the Moon is Illuminated
Jan 5
Waning Gibbous
Jan 11
New
Jan 18
First Quarter
Jan 27
Full
Feb 3
Last Quarter

Hourly Weather History & Observations

Time (GMT) Temp. Windchill Dew Point Humidity Pressure Visibility Wind Dir Wind Speed Gust Speed Precip Events Conditions
12:50 AM 46.4 °F 41.5 °F 44.6 °F 93% 30.54 in 3.1 mi West 10.4 mph - N/A   Overcast
1:50 AM 46.4 °F 40.7 °F 44.6 °F 93% 30.54 in 5.0 mi West 12.7 mph - N/A   Overcast
2:50 AM 46 °F - 45 °F 93% 30.57 in 5 mi WSW 10.4 mph - -   Mist
2:50 AM 46.4 °F 41.5 °F 44.6 °F 93% 30.54 in 5.0 mi WSW 10.4 mph - N/A   Overcast
3:50 AM 46.4 °F 42.9 °F 44.6 °F 93% 30.54 in 3.7 mi West 6.9 mph - N/A   Overcast
4:50 AM 46.4 °F 44.3 °F 44.6 °F 93% 30.51 in 4.3 mi SSW 4.6 mph - N/A   Overcast
5:50 AM 46 °F - 45 °F 95% 30.54 in 4 mi SSW 4.6 mph - -   Mist
5:50 AM 46.4 °F 44.3 °F 44.6 °F 93% 30.51 in 4.3 mi SSW 4.6 mph - N/A   Overcast
6:50 AM 46.4 °F 44.3 °F 44.6 °F 93% 30.51 in 3.7 mi SSW 4.6 mph - N/A   Overcast
7:50 AM 46.4 °F 43.5 °F 44.6 °F 93% 30.51 in 4.3 mi SSW 5.8 mph - N/A   Overcast
8:50 AM 46.4 °F 43.5 °F 46.4 °F 100% 30.54 in 5.0 mi SSW 5.8 mph - N/A   Overcast
9:50 AM 48.2 °F - 46.4 °F 93% 30.54 in 6.2 mi SSW 6.9 mph - N/A   Overcast
10:50 AM 50.0 °F - 46.4 °F 87% 30.54 in 6.2 mi SSW 6.9 mph - N/A   Overcast
11:50 AM 51 °F - 46 °F 77% 30.53 in 19 mi SW 12.7 mph - -   Mostly Cloudy
11:50 AM 50.0 °F - 46.4 °F 87% 30.51 in 6.2 mi SW 12.7 mph - N/A   Mostly Cloudy
12:50 PM 51.8 °F - 46.4 °F 82% 30.51 in 6.2 mi SW 16.1 mph - N/A   Unknown
1:50 PM 51.8 °F - 46.4 °F 82% 30.48 in 6.2 mi WSW 19.6 mph - N/A   Unknown
2:50 PM 50 °F - 46 °F 81% 30.50 in 12 mi WSW 10.4 mph - -   Partly Cloudy
2:50 PM 50.0 °F - 46.4 °F 87% 30.48 in 6.2 mi WSW 10.4 mph - N/A   Scattered Clouds
3:50 PM 48.2 °F - 44.6 °F 87% 30.48 in 6.2 mi SW 9.2 mph - N/A   Partly Cloudy
4:50 PM 48.2 °F - 44.6 °F 87% 30.48 in 6.2 mi WSW 12.7 mph - N/A   Partly Cloudy
5:50 PM 47 °F - 44 °F 86% 30.50 in 9 mi WSW 15.0 mph - -   Partly Cloudy
5:50 PM 48.2 °F - 44.6 °F 87% 30.48 in 6.2 mi WSW 15.0 mph - N/A   Scattered Clouds
6:50 PM 46.4 °F 40.7 °F 42.8 °F 87% 30.48 in 6.2 mi West 12.7 mph - N/A   Partly Cloudy
7:50 PM 46.4 °F 40.4 °F 42.8 °F 87% 30.48 in 6.2 mi WSW 13.8 mph - N/A   Unknown
8:50 PM 45 °F - 43 °F 89% 30.49 in 8 mi WSW 16.1 mph - -  
8:50 PM 44.6 °F 37.4 °F 42.8 °F 93% 30.48 in 6.2 mi WSW 16.1 mph - N/A   Unknown
9:50 PM 46.4 °F 39.5 °F 42.8 °F 87% 30.45 in 6.2 mi WSW 17.3 mph - N/A   Unknown
10:50 PM 44.6 °F 36.9 °F 42.8 °F 93% 30.45 in 6.2 mi West 18.4 mph - N/A   Unknown
11:50 PM 44 °F - 42 °F 91% 30.48 in 7 mi WSW 9.2 mph - -  
11:50 PM 44.6 °F 39.7 °F 42.8 °F 93% 30.45 in 6.2 mi WSW 9.2 mph - N/A   Unknown